When you browse on this site, cookies collect data to enhance your experience and personalize the content and advertising you see.
Visit our Privacy Policy to learn more. By continuing to use the site, you agree to this use of cookies and data.
  • In Hungary
  • List of Countries
  • For 7 days
  • Water Temperature
  • Satellite Maps
  • Weather Map
  • News
  • Weather Widgets
  • user-avatar
    Login

    Hourly Weather Quito

    Today, 26 April, Friday

    Time Temperature Precipitation Wind Pressure Humidity
    00:00 +19°C° 2.7 mm 1 mps 623 mmHg 93%
    01:00 +19°C° 0 mm 1 mps 623 mmHg 93%
    02:00 +19°C° 0.8 mm 1 mps 623 mmHg 93%
    03:00 +19°C° 0.8 mm 1 mps 623 mmHg 93%
    04:00 +19°C° 0.8 mm 1 mps 623 mmHg 93%
    05:00 +19°C° 0 mm 1 mps 623 mmHg 92%
    06:00 +19°C° 0 mm 1 mps 623 mmHg 90%
    07:00 +18°C° 0 mm 0 mps 624 mmHg 89%
    08:00 +21°C° 0.1 mm 1 mps 624 mmHg 81%
    09:00 +23°C° 0.1 mm 2 mps 625 mmHg 73%
    10:00 +25°C° 0.1 mm 2 mps 625 mmHg 65%
    11:00 +26°C° 0 mm 3 mps 625 mmHg 62%
    12:00 +26°C° 0 mm 3 mps 625 mmHg 59%
    13:00 +27°C° 0 mm 3 mps 624 mmHg 56%
    14:00 +27°C° 0.4 mm 3 mps 624 mmHg 60%
    15:00 +26°C° 0.4 mm 2 mps 623 mmHg 64%
    16:00 +26°C° 0.4 mm 2 mps 623 mmHg 68%
    17:00 +24°C° 0.1 mm 1 mps 623 mmHg 74%
    18:00 +22°C° 0.1 mm 1 mps 622 mmHg 80%
    19:00 +18°C° 0.1 mm 0 mps 622 mmHg 86%
    20:00 +20°C° 1.3 mm 1 mps 622 mmHg 88%
    21:00 +19°C° 1.3 mm 1 mps 622 mmHg 90%
    22:00 +18°C° 1.3 mm 2 mps 623 mmHg 93%
    23:00 +19°C° 1.7 mm 1 mps 622 mmHg 93%

    Tomorrow, 27 April, Saturday

    Time Temperature Precipitation Wind Pressure Humidity
    00:00 +18°C° 1.7 mm 1 mps 622 mmHg 93%
    01:00 +18°C° 1.7 mm 1 mps 622 mmHg 93%
    02:00 +18°C° 0.7 mm 1 mps 622 mmHg 93%
    03:00 +18°C° 0.7 mm 1 mps 622 mmHg 93%
    04:00 +16°C° 0.7 mm 0 mps 622 mmHg 92%
    05:00 +16°C° 0.6 mm 0 mps 622 mmHg 92%
    06:00 +17°C° 0.6 mm 0 mps 623 mmHg 91%
    07:00 +17°C° 0.6 mm 0 mps 623 mmHg 90%
    08:00 +21°C° 0 mm 1 mps 624 mmHg 83%
    09:00 +22°C° 0 mm 1 mps 624 mmHg 77%
    10:00 +24°C° 0 mm 2 mps 625 mmHg 70%
    11:00 +25°C° 0 mm 2 mps 625 mmHg 65%
    12:00 +26°C° 0 mm 3 mps 624 mmHg 60%
    13:00 +26°C° 0 mm 3 mps 624 mmHg 55%
    14:00 +26°C° 0 mm 2 mps 624 mmHg 59%
    15:00 +25°C° 0 mm 2 mps 623 mmHg 63%
    16:00 +25°C° 0 mm 1 mps 623 mmHg 67%
    17:00 +23°C° 0 mm 1 mps 623 mmHg 71%
    18:00 +22°C° 0 mm 1 mps 622 mmHg 75%
    19:00 +20°C° 0 mm 1 mps 622 mmHg 78%
    20:00 +18°C° 0 mm 0 mps 623 mmHg 79%
    21:00 +17°C° 0 mm 0 mps 623 mmHg 80%
    22:00 +17°C° 0 mm 0 mps 623 mmHg 81%
    23:00 +17°C° 0 mm 0 mps 623 mmHg 82%

    Day after tomorrow, 28 April, Sunday

    Time Temperature Precipitation Wind Pressure Humidity
    00:00 +18°C° 0 mm 1 mps 622 mmHg 83%
    01:00 +18°C° 0 mm 1 mps 622 mmHg 85%
    02:00 +18°C° 0 mm 1 mps 622 mmHg 87%
    03:00 +16°C° 0 mm 1 mps 622 mmHg 89%
    04:00 +16°C° 0 mm 1 mps 621 mmHg 91%
    05:00 +18°C° 0 mm 1 mps 622 mmHg 89%
    06:00 +18°C° 0 mm 1 mps 623 mmHg 88%
    07:00 +19°C° 0 mm 1 mps 623 mmHg 86%
    08:00 +21°C° 0 mm 1 mps 624 mmHg 76%
    09:00 +23°C° 0 mm 2 mps 625 mmHg 66%
    10:00 +25°C° 0 mm 3 mps 626 mmHg 56%
    11:00 +26°C° 0 mm 3 mps 625 mmHg 55%
    12:00 +26°C° 0 mm 3 mps 625 mmHg 53%
    13:00 +27°C° 0 mm 3 mps 624 mmHg 51%
    14:00 +26°C° 0 mm 2 mps 624 mmHg 54%
    15:00 +26°C° 0 mm 2 mps 624 mmHg 56%
    16:00 +26°C° 0 mm 2 mps 623 mmHg 58%
    17:00 +24°C° 0 mm 1 mps 623 mmHg 63%
    18:00 +22°C° 0 mm 1 mps 623 mmHg 68%
    19:00 +18°C° 0 mm 0 mps 623 mmHg 73%
    20:00 +18°C° 0 mm 0 mps 623 mmHg 73%
    21:00 +19°C° 0 mm 1 mps 623 mmHg 73%
    22:00 +19°C° 0 mm 1 mps 624 mmHg 73%
    23:00 +19°C° 0 mm 1 mps 624 mmHg 73%

    29 April, Monday

    Time Temperature Precipitation Wind Pressure Humidity
    00:00 +19°C° 0 mm 1 mps 623 mmHg 73%
    01:00 +19°C° 0 mm 1 mps 623 mmHg 73%
    02:00 +18°C° 0 mm 1 mps 623 mmHg 76%
    03:00 +18°C° 0 mm 1 mps 623 mmHg 78%
    04:00 +16°C° 0 mm 1 mps 622 mmHg 81%
    05:00 +16°C° 0 mm 1 mps 623 mmHg 80%
    06:00 +18°C° 0 mm 1 mps 623 mmHg 80%
    07:00 +18°C° 0 mm 1 mps 624 mmHg 80%
    08:00 +19°C° 0 mm 2 mps 625 mmHg 72%
    09:00 +21°C° 0 mm 3 mps 625 mmHg 65%
    10:00 +24°C° 0 mm 3 mps 626 mmHg 58%
    11:00 +25°C° 0 mm 3 mps 626 mmHg 55%
    12:00 +26°C° 0 mm 3 mps 625 mmHg 52%
    13:00 +27°C° 0 mm 3 mps 625 mmHg 49%
    14:00 +26°C° 0 mm 3 mps 624 mmHg 51%
    15:00 +26°C° 0 mm 2 mps 624 mmHg 54%
    16:00 +26°C° 0 mm 2 mps 624 mmHg 56%
    17:00 +24°C° 0 mm 2 mps 624 mmHg 63%
    18:00 +22°C° 0 mm 1 mps 624 mmHg 70%
    19:00 +20°C° 0 mm 1 mps 624 mmHg 76%
    20:00 +19°C° 0 mm 1 mps 624 mmHg 79%
    21:00 +19°C° 0 mm 1 mps 624 mmHg 81%
    22:00 +18°C° 0 mm 1 mps 624 mmHg 84%
    23:00 +18°C° 0 mm 1 mps 624 mmHg 85%

    30 April, Tuesday

    Time Temperature Precipitation Wind Pressure Humidity
    00:00 +16°C° 0 mm 1 mps 623 mmHg 87%
    01:00 +15°C° 0 mm 1 mps 623 mmHg 88%
    02:00 +15°C° 0 mm 1 mps 623 mmHg 89%
    03:00 +15°C° 0 mm 1 mps 623 mmHg 89%
    04:00 +14°C° 0 mm 1 mps 622 mmHg 89%
    05:00 +15°C° 0 mm 1 mps 623 mmHg 87%
    06:00 +15°C° 0 mm 1 mps 624 mmHg 85%
    07:00 +16°C° 0 mm 1 mps 624 mmHg 83%
    08:00 +18°C° 0 mm 2 mps 625 mmHg 75%
    09:00 +21°C° 0 mm 3 mps 625 mmHg 67%
    10:00 +23°C° 0 mm 4 mps 626 mmHg 58%
    11:00 +25°C° 0 mm 4 mps 626 mmHg 56%
    12:00 +25°C° 0 mm 3 mps 625 mmHg 54%
    13:00 +26°C° 0 mm 3 mps 624 mmHg 52%
    14:00 +26°C° 0 mm 3 mps 624 mmHg 53%
    15:00 +26°C° 0 mm 2 mps 624 mmHg 55%
    16:00 +25°C° 0 mm 2 mps 623 mmHg 57%
    17:00 +23°C° 0 mm 1 mps 623 mmHg 63%
    18:00 +21°C° 0 mm 1 mps 623 mmHg 68%
    19:00 +17°C° 0 mm 0 mps 623 mmHg 74%
    20:00 +17°C° 0 mm 0 mps 623 mmHg 75%
    21:00 +16°C° 0 mm 0 mps 623 mmHg 75%
    22:00 +16°C° 0 mm 0 mps 623 mmHg 75%
    23:00 +16°C° 0 mm 0 mps 623 mmHg 76%

    1 May, Wednesday

    Time Temperature Precipitation Wind Pressure Humidity
    00:00 +16°C° 0 mm 0 mps 623 mmHg 78%
    01:00 +15°C° 0 mm 0 mps 623 mmHg 79%
    02:00 +15°C° 0 mm 0 mps 622 mmHg 81%
    03:00 +15°C° 0 mm 0 mps 622 mmHg 82%
    04:00 +16°C° 0 mm 1 mps 622 mmHg 83%
    05:00 +16°C° 0 mm 1 mps 623 mmHg 83%
    06:00 +16°C° 0 mm 1 mps 623 mmHg 83%
    07:00 +18°C° 0 mm 1 mps 624 mmHg 83%
    08:00 +19°C° 0 mm 2 mps 624 mmHg 74%
    09:00 +21°C° 0 mm 2 mps 625 mmHg 64%
    10:00 +24°C° 0 mm 3 mps 626 mmHg 54%
    11:00 +25°C° 0 mm 3 mps 625 mmHg 53%
    12:00 +26°C° 0 mm 3 mps 625 mmHg 51%
    13:00 +26°C° 0 mm 3 mps 624 mmHg 49%
    14:00 +26°C° 0 mm 2 mps 624 mmHg 50%
    15:00 +26°C° 0 mm 2 mps 623 mmHg 52%
    16:00 +26°C° 0 mm 1 mps 623 mmHg 53%
    17:00 +24°C° 0 mm 1 mps 623 mmHg 58%
    18:00 +22°C° 0 mm 1 mps 623 mmHg 63%
    19:00 +19°C° 0 mm 1 mps 622 mmHg 69%
    20:00 +19°C° 0 mm 1 mps 623 mmHg 70%
    21:00 +19°C° 0 mm 1 mps 623 mmHg 71%
    22:00 +18°C° 0 mm 1 mps 623 mmHg 71%
    23:00 +18°C° 0 mm 1 mps 622 mmHg 73%
    Show more